SCP
0 0 0 0 0 0 0 0 0 0 0 1 0 0 0 0 0 0 0 0 0 0 0 0 0 0 0 0 0 0 0 0 0 0 0 0 0 0 0 0 0 0 0 0 -0
0 0 0 0 0 0 0 0 0 0 0 0 0 0 0 0 0 0 0 0 0 0 0 0 0 0 0 0 0 0 0 0 0 0 0 0 0 0 0 0 0 0 0 0 -0
0 0 0 0 0 0 0 0 0 0 0 0 0 0 0 0 0 0 0 0 0 0 0 0 0 0 0 0 0 0 0 0 0 0 0 0 0 0 0 0 0 0 0 0 -0
0 0 0 0 0 0 0 0 0 0 0 0 1 1 0 0 0 0 0 0 0 0 0 0 0 0 0 0 0 0 0 0 0 0 0 0 0 0 0 0 0 0 0 0 -0
0 0 0 0 0 0 0 0 0 0 1 0 0 0 1 1 0 0 0 0 0 0 0 0 0 0 0 0 0 0 0 0 0 0 0 0 0 0 0 0 0 0 0 0 0
0 0 0 0 0 0 0 0 0 0 1 1 1 0 0 0 0 0 0 0 0 0 0 0 0 0 0 0 0 0 0 0 0 0 0 -0 0 0 0 0 0 0 0 0 0
0 0 0 0 0 0 0 0 0 0 0 0 1 0 0 0 0 0 0 0 0 0 0 0 0 0 0 0 0 0 0 0 0 0 0 0 -0 0 0 0 0 0 0 0 0
0 0 0 0 0 0 0 0 0 0 0 0 0 0 0 0 0 0 0 0 0 0 0 0 0 0 0 0 0 0 0 0 0 0 0 0 0 -0 0 0 0 0 0 0 0
0 0 0 0 0 0 0 0 0 0 0 0 0 0 0 0 0 0 0 0 0 0 0 0 0 0 0 0 0 0 0 0 0 0 0 0 0 0 0 0 0 0 0 0 0
0 0 0 0 0 0 0 0 0 0 0 0 0 0 0 0 0 0 0 0 0 0 0 0 0 0 0 0 0 0 0 0 0 0 0 0 0 0 0 0 0 0 0 0 0
0 0 0 0 0 0 1 0 0 0 0 0 0 0 0 0 0 0 0 0 0 0 0 0 0 0 0 0 0 0 0 0 0 0 0 0 0 0 0 0 0 0 0 0 0
1 0 0 0 0 1 0 0 0 0 0 0 0 0 0 0 0 0 0 0 0 0 0 0 0 0 0 0 0 0 0 0 0 0 0 0 0 0 0 0 0 0 0 0 0
0 0 0 0 0 1 0 0 0 0 0 0 0 0 0 0 0 0 0 0 0 0 0 0 0 0 0 0 0 0 0 0 0 0 0 0 -0 -0 0 0 -0 0 0 0 0
0 0 0 0 1 0 0 0 0 0 0 0 0 0 0 0 0 0 0 0 0 0 0 0 0 0 0 0 0 0 0 0 0 0 0 0 -0 -0 -0 0 0 0 0 0 0
0 0 0 0 0 0 0 0 0 0 0 0 0 0 0 0 0 0 0 0 0 0 0 0 0 0 0 0 0 0 0 0 0 0 0 0 -0 -0 0 0 0 0 0 0 0
-0 0 0 0 0 0 0 0 0 0 0 0 0 0 0 0 0 0 0 0 0 0 0 0 0 0 0 0 0 0 0 0 0 0 0 0 0 -0 0 0 0 0 0 0 0
0 0 0 0 0 0 0 0 0 0 0 0 0 0 0 0 0 0 0 0 0 0 0 0 0 0 0 0 0 0 0 0 0 0 0 -0 0 0 0 0 0 0 0 0 0
0 0 0 0 0 0 0 0 0 0 0 0 0 0 0 0 0 0 0 0 0 0 0 0 0 0 0 0 0 0 0 0 0 0 0 0 0 -0 0 0 0 0 0 0 0
0 0 0 0 0 0 0 0 0 0 0 0 0 0 0 0 0 0 0 0 0 0 0 0 0 0 0 0 0 0 0 0 0 0 0 0 0 -0 0 0 0 0 0 0 0
0 0 0 0 0 0 0 0 0 0 0 0 0 0 0 0 0 0 0 0 0 0 0 0 0 0 0 0 0 0 0 0 0 0 0 0 0 -0 0 0 0 0 0 0 0
0 0 0 0 0 0 0 0 0 0 0 0 0 0 0 0 0 0 0 0 0 0 0 0 0 0 0 0 0 0 0 0 0 0 0 0 -0 -0 -0 0 0 0 0 0 0
0 0 0 0 0 0 0 0 0 0 0 0 0 0 0 0 0 0 0 0 0 0 0 0 0 0 0 0 0 0 0 0 0 0 0 0 -0 0 0 0 0 0 0 0 0
0 0 0 0 0 0 0 0 0 0 0 0 0 0 -0 0 0 0 0 0 0 0 0 0 0 0 0 0 0 0 0 0 0 0 0 0 -0 0 0 0 0 0 0 0 0
0 0 0 0 0 0 0 0 0 0 0 0 0 0 0 0 0 -0 0 0 0 0 0 0 0 0 0 0 0 0 0 0 0 0 0 0 0 0 0 0 0 0 0 0 0
0 0 0 0 0 0 0 0 0 0 0 0 0 0 0 0 0 -0 -0 0 0 0 0 0 0 0 0 0 0 0 0 0 0 0 0 0 0 0 0 0 0 0 0 0 0
0 0 0 0 0 0 0 0 0 0 0 0 0 0 0 0 0 -0 -0 -0 -0 0 0 0 0 0 0 0 0 0 0 0 0 0 0 0 0 0 0 0 0 0 0 0 0
0 0 0 0 0 0 0 0 0 0 0 0 0 0 0 0 -0 -0 0 0 0 0 0 0 0 0 0 0 0 0 0 0 0 0 0 0 0 0 0 0 0 0 0 0 0
Wind_Speed_500mb
67 62 64 60 65 59 63 58 57 55 56 57 57 58 56 51 36 49 56 48 46 28 32 28 21 18 17 16 17 29 6 8 10 7 7 8 1 3 8 15 18 19 10 12 38
70 65 67 64 64 64 61 61 56 52 53 57 54 58 49 57 55 49 62 55 33 26 34 34 25 21 15 16 9 7 10 17 11 3 5 8 1 6 7 12 16 17 19 16 46
76 72 69 71 68 69 62 63 61 54 51 54 55 51 50 45 50 35 67 53 38 35 24 31 24 20 9 15 13 5 9 7 7 11 6 7 5 2 7 8 23 31 32 29 51
83 76 73 70 73 68 65 60 63 63 54 51 53 52 49 48 19 26 40 60 59 44 32 38 30 17 10 11 14 11 17 13 8 10 6 6 4 3 15 12 12 28 29 36 54
89 81 74 75 73 69 68 61 58 62 59 56 49 49 48 53 37 9 30 46 42 47 37 38 39 20 11 11 13 7 9 16 32 20 18 16 9 8 22 18 28 19 31 41 51
93 86 81 76 74 70 68 64 56 55 57 56 52 49 53 45 49 53 17 37 54 50 52 45 29 27 17 15 13 12 22 5 12 25 19 7 9 5 9 3 18 21 32 43 52
103 93 87 79 76 72 67 62 58 50 52 54 48 52 49 55 25 52 51 55 43 62 51 55 27 32 20 10 15 6 2 5 15 11 11 12 24 20 52 41 27 26 35 45 52
107 97 86 83 80 74 70 64 58 50 46 45 44 44 29 61 37 37 46 32 49 43 61 53 48 37 11 11 8 8 4 2 5 16 14 18 35 35 33 38 50 42 41 48 55
106 97 88 87 85 76 68 59 56 54 44 43 41 25 18 41 62 40 53 39 49 50 51 60 53 14 14 11 5 8 7 9 12 23 5 16 17 41 47 40 47 52 50 52 57
100 97 94 89 86 78 68 57 44 43 43 41 31 15 32 58 64 77 39 47 38 56 53 34 20 10 8 11 24 12 10 8 12 8 8 6 33 24 10 44 59 59 57 59 62
106 105 101 95 91 82 71 61 46 23 63 31 28 7 4 54 41 57 68 49 46 38 18 27 14 16 34 33 4 11 10 18 6 11 10 21 32 29 43 25 28 50 67 68 71
102 106 102 99 96 88 80 81 79 30 30 27 14 12 30 37 25 51 66 42 35 36 25 12 31 32 21 19 15 6 8 7 6 4 10 12 27 25 25 27 54 65 68 64 78
85 121 106 102 100 92 94 88 70 38 15 41 25 36 14 9 16 48 66 53 34 35 35 32 44 32 21 19 27 27 30 7 6 5 6 12 28 26 18 52 60 66 77 78 83
85 123 114 107 103 102 99 78 70 36 8 8 26 20 46 15 10 27 60 44 18 44 39 34 33 33 33 37 30 42 12 11 9 2 9 9 14 12 12 31 20 62 77 90 88
96 137 117 124 108 108 101 77 70 28 5 12 20 22 31 24 21 23 40 59 37 22 13 23 28 34 43 47 37 21 21 13 2 5 7 9 10 14 5 16 25 41 70 76 84
105 114 126 114 91 90 93 76 51 9 14 9 22 28 21 30 9 12 37 54 18 13 22 24 6 23 18 16 34 15 12 7 4 3 18 33 23 18 18 24 20 20 57 60 65
95 134 132 120 97 103 101 82 10 10 4 12 14 28 33 25 22 12 29 28 28 28 35 40 20 14 25 17 29 34 20 7 11 12 24 8 19 39 13 19 17 21 53 53 52
83 140 122 108 102 104 105 22 9 8 14 8 14 28 31 17 28 19 19 30 38 31 9 34 27 30 34 28 20 54 30 9 16 11 17 11 21 12 24 56 64 59 52 38 34
102 115 106 100 110 112 83 28 16 15 16 19 16 21 17 18 16 19 19 30 26 54 34 15 34 34 23 10 30 24 22 23 10 5 4 11 17 13 22 28 31 42 57 69 56
101 100 92 108 116 109 34 17 9 11 15 9 10 7 13 34 17 38 25 27 29 38 50 9 11 35 20 21 12 24 32 21 5 7 10 12 13 25 7 39 25 24 48 68 64
104 36 102 115 109 69 32 14 8 9 13 10 9 9 7 15 24 24 15 25 41 27 39 12 8 16 22 32 41 16 23 14 13 10 11 16 21 16 34 36 33 38 62 73 67
38 12 102 116 27 17 24 14 11 12 5 7 8 8 11 15 6 22 21 16 30 36 34 42 5 6 49 11 38 46 17 35 19 25 9 0 27 2 18 16 12 33 41 61 53
24 36 87 92 13 27 2 9 5 9 10 7 7 6 2 8 6 15 12 13 25 18 30 18 17 18 8 7 6 33 30 46 27 5 36 26 41 7 4 14 26 33 38 39 47
39 13 21 34 7 29 13 7 8 9 9 10 10 11 7 4 3 3 8 7 27 33 58 23 23 29 26 26 11 46 59 52 54 30 44 46 71 33 10 11 17 26 38 39 45
23 9 20 23 4 20 10 10 10 9 5 10 5 7 13 8 9 16 11 5 11 23 30 31 37 47 61 53 29 36 49 57 51 61 42 61 63 54 23 21 18 32 31 26 36
17 17 27 15 27 18 4 8 16 2 12 5 8 18 18 16 20 7 2 14 19 15 14 29 33 36 54 42 59 48 47 53 51 61 56 61 59 48 37 56 34 41 37 39 43
35 54 33 21 7 11 9 12 13 17 8 14 23 9 18 21 28 39 45 39 33 25 17 20 29 21 46 58 36 52 62 64 59 67 65 59 78 34 14 21 49 66 54 57 60
Wind_Direction_500mb
240 237 232 233 223 226 225 223 223 220 218 216 217 217 219 197 206 204 210 210 212 207 204 202 194 191 182 157 143 148 140 225 215 207 255 351 306 156 190 157 176 194 220 228 183
236 236 230 231 225 224 224 222 220 216 214 213 211 214 218 225 228 229 218 210 213 207 199 203 187 172 161 154 153 172 177 217 216 189 238 326 348 189 170 166 218 214 214 212 185
232 229 232 227 229 223 223 221 221 213 208 209 209 209 212 213 216 218 219 215 216 204 221 209 186 176 160 160 158 172 209 191 241 218 216 265 134 224 167 226 224 221 209 199 190
233 226 228 225 226 222 221 219 218 219 210 207 206 204 201 212 237 252 237 222 230 213 218 202 187 172 146 166 165 145 249 228 197 214 203 242 296 359 214 234 271 247 232 209 196
232 227 223 224 223 221 219 217 214 213 210 214 208 197 190 203 214 144 220 217 206 200 207 203 187 167 173 170 139 163 218 239 231 244 270 266 249 228 257 272 269 272 220 217 206
229 226 220 220 219 218 215 214 211 207 207 208 212 200 196 218 218 219 216 199 207 204 214 221 208 186 171 170 185 212 223 247 262 257 253 244 239 278 214 359 266 250 224 216 213
226 221 220 217 216 213 212 211 210 203 202 203 203 206 210 216 224 224 232 225 228 214 207 221 221 195 164 145 187 160 252 344 247 242 236 229 265 213 243 252 272 256 230 221 220
222 218 217 214 211 210 211 210 206 200 198 196 199 206 223 219 212 196 209 208 223 225 221 222 223 209 185 125 82 122 103 220 262 182 244 192 255 253 248 239 251 254 241 229 224
220 217 215 212 208 206 206 201 200 201 195 190 192 189 222 224 215 202 204 203 213 210 226 224 222 186 166 116 116 224 197 190 305 206 191 191 262 258 246 246 242 243 245 237 234
224 214 213 208 204 197 194 188 180 181 181 186 196 181 231 214 216 209 206 200 196 204 201 212 214 170 142 177 212 196 187 183 205 238 219 231 250 268 256 228 235 238 238 239 239
222 208 206 203 199 191 183 164 156 177 186 181 192 215 227 212 213 212 211 202 203 192 199 172 217 223 196 206 163 163 183 199 195 218 186 221 243 245 251 244 246 244 240 240 243
209 208 202 198 194 189 183 177 175 184 179 192 203 156 119 174 176 209 205 193 199 219 184 193 224 227 201 199 213 180 200 222 293 197 191 277 264 246 248 245 244 241 246 248 246
197 201 197 194 190 185 188 188 168 141 138 211 191 210 183 157 187 206 194 201 202 209 206 216 223 221 221 196 207 224 220 191 230 7 255 334 273 258 243 244 247 248 252 255 248
210 203 192 186 183 182 189 179 164 151 103 219 206 224 220 162 230 208 203 191 218 215 209 220 226 195 209 218 199 227 153 167 211 244 254 168 285 259 236 242 226 235 237 245 245
215 191 185 186 175 179 179 169 169 159 110 195 176 200 194 183 143 206 206 203 220 203 185 206 198 196 201 211 193 227 170 180 149 269 321 243 280 273 252 243 240 230 234 241 246
220 184 183 176 175 174 171 161 155 117 230 172 149 171 157 197 178 141 182 203 222 244 259 252 157 216 195 181 178 153 106 98 98 25 270 247 231 231 227 222 254 227 241 245 250
204 180 179 171 168 173 161 153 136 183 279 179 176 176 177 179 193 144 191 194 198 195 218 226 216 211 157 182 173 183 160 175 211 197 240 190 206 245 246 251 233 229 247 248 251
191 176 167 168 167 164 153 143 123 191 193 232 160 168 186 144 202 165 155 208 216 215 212 217 219 215 184 197 181 190 176 163 189 189 257 128 238 247 232 248 248 248 248 248 256
177 163 152 159 169 158 155 178 188 179 160 161 150 165 179 186 141 193 219 213 215 221 211 190 224 171 205 174 159 191 202 183 112 40 53 209 276 285 263 263 258 250 251 255 250
156 143 148 160 165 159 161 172 147 161 124 150 152 144 174 177 162 181 184 227 221 224 216 204 256 189 189 189 224 187 187 188 145 175 243 243 258 236 255 244 245 243 238 245 241
134 126 150 159 157 157 177 180 150 150 118 137 147 134 106 177 185 183 218 236 200 206 195 229 241 189 169 196 188 178 187 200 177 164 200 255 255 200 213 235 228 240 240 239 241
129 102 151 152 146 170 184 154 131 135 114 98 97 93 143 139 187 212 222 211 197 196 204 212 250 230 212 173 224 205 191 191 201 211 223 112 261 248 244 275 319 277 262 252 248
98 108 146 158 152 172 119 107 124 131 150 134 113 106 135 139 148 188 220 263 276 170 214 186 218 261 182 242 204 204 205 199 213 61 219 228 259 219 261 293 283 268 272 264 243
124 122 118 162 123 154 137 145 104 96 122 118 121 110 112 162 227 293 228 245 218 241 226 199 226 226 242 221 170 207 206 199 204 211 224 224 247 241 264 264 296 270 259 261 226
120 111 147 165 222 132 102 129 120 138 89 132 70 153 147 165 199 230 215 287 266 243 236 214 237 226 236 254 203 208 211 209 208 220 214 236 240 244 241 267 260 277 271 248 230
110 135 97 89 113 116 128 215 160 248 137 178 149 189 180 191 194 159 283 216 243 209 204 216 229 232 245 232 237 222 214 209 214 226 232 248 253 243 230 241 248 255 249 248 236
118 132 114 133 90 99 185 176 182 130 198 167 192 171 210 238 251 258 265 265 259 282 273 240 233 212 242 221 223 231 208 211 216 222 215 225 233 221 191 215 231 247 247 239 236
Wind_Speed_850mb
67 62 64 60 65 59 63 58 57 55 56 57 57 58 56 51 36 49 56 48 46 28 32 28 21 18 17 16 17 29 6 8 10 7 7 8 1 3 8 15 18 19 10 12 38
70 65 67 64 64 64 61 61 56 52 53 57 54 58 49 57 55 49 62 55 33 26 34 34 25 21 15 16 9 7 10 17 11 3 5 8 1 6 7 12 16 17 19 16 46
76 72 69 71 68 69 62 63 61 54 51 54 55 51 50 45 50 35 67 53 38 35 24 31 24 20 9 15 13 5 9 7 7 11 6 7 5 2 7 8 23 31 32 29 51
83 76 73 70 73 68 65 60 63 63 54 51 53 52 49 48 19 26 40 60 59 44 32 38 30 17 10 11 14 11 17 13 8 10 6 6 4 3 15 12 12 28 29 36 54
89 81 74 75 73 69 68 61 58 62 59 56 49 49 48 53 37 9 30 46 42 47 37 38 39 20 11 11 13 7 9 16 32 20 18 16 9 8 22 18 28 19 31 41 51
93 86 81 76 74 70 68 64 56 55 57 56 52 49 53 45 49 53 17 37 54 50 52 45 29 27 17 15 13 12 22 5 12 25 19 7 9 5 9 3 18 21 32 43 52
103 93 87 79 76 72 67 62 58 50 52 54 48 52 49 55 25 52 51 55 43 62 51 55 27 32 20 10 15 6 2 5 15 11 11 12 24 20 52 41 27 26 35 45 52
107 97 86 83 80 74 70 64 58 50 46 45 44 44 29 61 37 37 46 32 49 43 61 53 48 37 11 11 8 8 4 2 5 16 14 18 35 35 33 38 50 42 41 48 55
106 97 88 87 85 76 68 59 56 54 44 43 41 25 18 41 62 40 53 39 49 50 51 60 53 14 14 11 5 8 7 9 12 23 5 16 17 41 47 40 47 52 50 52 57
100 97 94 89 86 78 68 57 44 43 43 41 31 15 32 58 64 77 39 47 38 56 53 34 20 10 8 11 24 12 10 8 12 8 8 6 33 24 10 44 59 59 57 59 62
106 105 101 95 91 82 71 61 46 23 63 31 28 7 4 54 41 57 68 49 46 38 18 27 14 16 34 33 4 11 10 18 6 11 10 21 32 29 43 25 28 50 67 68 71
102 106 102 99 96 88 80 81 79 30 30 27 14 12 30 37 25 51 66 42 35 36 25 12 31 32 21 19 15 6 8 7 6 4 10 12 27 25 25 27 54 65 68 64 78
85 121 106 102 100 92 94 88 70 38 15 41 25 36 14 9 16 48 66 53 34 35 35 32 44 32 21 19 27 27 30 7 6 5 6 12 28 26 18 52 60 66 77 78 83
85 123 114 107 103 102 99 78 70 36 8 8 26 20 46 15 10 27 60 44 18 44 39 34 33 33 33 37 30 42 12 11 9 2 9 9 14 12 12 31 20 62 77 90 88
96 137 117 124 108 108 101 77 70 28 5 12 20 22 31 24 21 23 40 59 37 22 13 23 28 34 43 47 37 21 21 13 2 5 7 9 10 14 5 16 25 41 70 76 84
105 114 126 114 91 90 93 76 51 9 14 9 22 28 21 30 9 12 37 54 18 13 22 24 6 23 18 16 34 15 12 7 4 3 18 33 23 18 18 24 20 20 57 60 65
95 134 132 120 97 103 101 82 10 10 4 12 14 28 33 25 22 12 29 28 28 28 35 40 20 14 25 17 29 34 20 7 11 12 24 8 19 39 13 19 17 21 53 53 52
83 140 122 108 102 104 105 22 9 8 14 8 14 28 31 17 28 19 19 30 38 31 9 34 27 30 34 28 20 54 30 9 16 11 17 11 21 12 24 56 64 59 52 38 34
102 115 106 100 110 112 83 28 16 15 16 19 16 21 17 18 16 19 19 30 26 54 34 15 34 34 23 10 30 24 22 23 10 5 4 11 17 13 22 28 31 42 57 69 56
101 100 92 108 116 109 34 17 9 11 15 9 10 7 13 34 17 38 25 27 29 38 50 9 11 35 20 21 12 24 32 21 5 7 10 12 13 25 7 39 25 24 48 68 64
104 36 102 115 109 69 32 14 8 9 13 10 9 9 7 15 24 24 15 25 41 27 39 12 8 16 22 32 41 16 23 14 13 10 11 16 21 16 34 36 33 38 62 73 67
38 12 102 116 27 17 24 14 11 12 5 7 8 8 11 15 6 22 21 16 30 36 34 42 5 6 49 11 38 46 17 35 19 25 9 0 27 2 18 16 12 33 41 61 53
24 36 87 92 13 27 2 9 5 9 10 7 7 6 2 8 6 15 12 13 25 18 30 18 17 18 8 7 6 33 30 46 27 5 36 26 41 7 4 14 26 33 38 39 47
39 13 21 34 7 29 13 7 8 9 9 10 10 11 7 4 3 3 8 7 27 33 58 23 23 29 26 26 11 46 59 52 54 30 44 46 71 33 10 11 17 26 38 39 45
23 9 20 23 4 20 10 10 10 9 5 10 5 7 13 8 9 16 11 5 11 23 30 31 37 47 61 53 29 36 49 57 51 61 42 61 63 54 23 21 18 32 31 26 36
17 17 27 15 27 18 4 8 16 2 12 5 8 18 18 16 20 7 2 14 19 15 14 29 33 36 54 42 59 48 47 53 51 61 56 61 59 48 37 56 34 41 37 39 43
35 54 33 21 7 11 9 12 13 17 8 14 23 9 18 21 28 39 45 39 33 25 17 20 29 21 46 58 36 52 62 64 59 67 65 59 78 34 14 21 49 66 54 57 60
Wind_Direction_850mb
240 237 232 233 223 226 225 223 223 220 218 216 217 217 219 197 206 204 210 210 212 207 204 202 194 191 182 157 143 148 140 225 215 207 255 351 306 156 190 157 176 194 220 228 183
236 236 230 231 225 224 224 222 220 216 214 213 211 214 218 225 228 229 218 210 213 207 199 203 187 172 161 154 153 172 177 217 216 189 238 326 348 189 170 166 218 214 214 212 185
232 229 232 227 229 223 223 221 221 213 208 209 209 209 212 213 216 218 219 215 216 204 221 209 186 176 160 160 158 172 209 191 241 218 216 265 134 224 167 226 224 221 209 199 190
233 226 228 225 226 222 221 219 218 219 210 207 206 204 201 212 237 252 237 222 230 213 218 202 187 172 146 166 165 145 249 228 197 214 203 242 296 359 214 234 271 247 232 209 196
232 227 223 224 223 221 219 217 214 213 210 214 208 197 190 203 214 144 220 217 206 200 207 203 187 167 173 170 139 163 218 239 231 244 270 266 249 228 257 272 269 272 220 217 206
229 226 220 220 219 218 215 214 211 207 207 208 212 200 196 218 218 219 216 199 207 204 214 221 208 186 171 170 185 212 223 247 262 257 253 244 239 278 214 359 266 250 224 216 213
226 221 220 217 216 213 212 211 210 203 202 203 203 206 210 216 224 224 232 225 228 214 207 221 221 195 164 145 187 160 252 344 247 242 236 229 265 213 243 252 272 256 230 221 220
222 218 217 214 211 210 211 210 206 200 198 196 199 206 223 219 212 196 209 208 223 225 221 222 223 209 185 125 82 122 103 220 262 182 244 192 255 253 248 239 251 254 241 229 224
220 217 215 212 208 206 206 201 200 201 195 190 192 189 222 224 215 202 204 203 213 210 226 224 222 186 166 116 116 224 197 190 305 206 191 191 262 258 246 246 242 243 245 237 234
224 214 213 208 204 197 194 188 180 181 181 186 196 181 231 214 216 209 206 200 196 204 201 212 214 170 142 177 212 196 187 183 205 238 219 231 250 268 256 228 235 238 238 239 239
222 208 206 203 199 191 183 164 156 177 186 181 192 215 227 212 213 212 211 202 203 192 199 172 217 223 196 206 163 163 183 199 195 218 186 221 243 245 251 244 246 244 240 240 243
209 208 202 198 194 189 183 177 175 184 179 192 203 156 119 174 176 209 205 193 199 219 184 193 224 227 201 199 213 180 200 222 293 197 191 277 264 246 248 245 244 241 246 248 246
197 201 197 194 190 185 188 188 168 141 138 211 191 210 183 157 187 206 194 201 202 209 206 216 223 221 221 196 207 224 220 191 230 7 255 334 273 258 243 244 247 248 252 255 248
210 203 192 186 183 182 189 179 164 151 103 219 206 224 220 162 230 208 203 191 218 215 209 220 226 195 209 218 199 227 153 167 211 244 254 168 285 259 236 242 226 235 237 245 245
215 191 185 186 175 179 179 169 169 159 110 195 176 200 194 183 143 206 206 203 220 203 185 206 198 196 201 211 193 227 170 180 149 269 321 243 280 273 252 243 240 230 234 241 246
220 184 183 176 175 174 171 161 155 117 230 172 149 171 157 197 178 141 182 203 222 244 259 252 157 216 195 181 178 153 106 98 98 25 270 247 231 231 227 222 254 227 241 245 250
204 180 179 171 168 173 161 153 136 183 279 179 176 176 177 179 193 144 191 194 198 195 218 226 216 211 157 182 173 183 160 175 211 197 240 190 206 245 246 251 233 229 247 248 251
191 176 167 168 167 164 153 143 123 191 193 232 160 168 186 144 202 165 155 208 216 215 212 217 219 215 184 197 181 190 176 163 189 189 257 128 238 247 232 248 248 248 248 248 256
177 163 152 159 169 158 155 178 188 179 160 161 150 165 179 186 141 193 219 213 215 221 211 190 224 171 205 174 159 191 202 183 112 40 53 209 276 285 263 263 258 250 251 255 250
156 143 148 160 165 159 161 172 147 161 124 150 152 144 174 177 162 181 184 227 221 224 216 204 256 189 189 189 224 187 187 188 145 175 243 243 258 236 255 244 245 243 238 245 241
134 126 150 159 157 157 177 180 150 150 118 137 147 134 106 177 185 183 218 236 200 206 195 229 241 189 169 196 188 178 187 200 177 164 200 255 255 200 213 235 228 240 240 239 241
129 102 151 152 146 170 184 154 131 135 114 98 97 93 143 139 187 212 222 211 197 196 204 212 250 230 212 173 224 205 191 191 201 211 223 112 261 248 244 275 319 277 262 252 248
98 108 146 158 152 172 119 107 124 131 150 134 113 106 135 139 148 188 220 263 276 170 214 186 218 261 182 242 204 204 205 199 213 61 219 228 259 219 261 293 283 268 272 264 243
124 122 118 162 123 154 137 145 104 96 122 118 121 110 112 162 227 293 228 245 218 241 226 199 226 226 242 221 170 207 206 199 204 211 224 224 247 241 264 264 296 270 259 261 226
120 111 147 165 222 132 102 129 120 138 89 132 70 153 147 165 199 230 215 287 266 243 236 214 237 226 236 254 203 208 211 209 208 220 214 236 240 244 241 267 260 277 271 248 230
110 135 97 89 113 116 128 215 160 248 137 178 149 189 180 191 194 159 283 216 243 209 204 216 229 232 245 232 237 222 214 209 214 226 232 248 253 243 230 241 248 255 249 248 236
118 132 114 133 90 99 185 176 182 130 198 167 192 171 210 238 251 258 265 265 259 282 273 240 233 212 242 221 223 231 208 211 216 222 215 225 233 221 191 215 231 247 247 239 236